Flag for Moldova Weather past 2 weeks in Bălți, Moldova

Now
54 °F

Cool.


Feels Like: 50 °F
Forecast: 44 / 53 °F
Wind: 10 mph from South

Location: Baltsi-Leadoveni - The North of Moldova

Current Time: Mar 30, 2015 at 7:45:19 PM

Latest Report: Mar 30, 2015 at 7:00 PM


Visibility: N/A

Pressure: 29.53 "Hg

Humidity: 67%

Dew point: 43 °F

Location of BălțiLocation

Historic Weather in Bălți — Graph

°F

Bălți temperature yesterday

Maximum temperature yesterday: 43 °F (at 12:00 AM)
Minimum temperature yesterday: 37 °F (at 9:00 AM)
Average temperature yesterday: 40 °F

Past Weeks' High & Low Weather Summary

 TemperatureHumidityPressure
High61 °F (Mar 26, 1:30 PM)100% (Mar 18, 4:00 PM)30.72 "Hg (Mar 18, 4:00 PM)
Low27 °F (Mar 23, 6:00 AM)26% (Mar 23, 3:00 PM)29.50 "Hg (Mar 30, 5:00 PM)
Average42 °F70%30.11 "Hg
* Reported Mar 15 6:00 PM — Mar 30 7:00 PM, Bălți, Weather by CustomWeather, © 2015

Note: Actual official high and low records may vary slightly from our data, if they occured in-between our weather recording intervals... More about our weather records

Advertising

Bălți weather history for previous 24 hours

 ConditionsComfort  
Time TempWeatherWind HumidityBarometerVisibility
7:00 PM
Mon, Mar 30
54 °FCool.10 mph67%29.53 "HgN/A
6:30 PM54 °FSunny.12 mph67%29.53 "Hg10 mi
6:00 PM55 °FSunny.14 mph63%29.50 "Hg10 mi
5:00 PM55 °FSunny.15 mph63%29.50 "Hg10 mi
4:00 PM55 °FPassing clouds.16 mph59%29.53 "HgN/A
3:00 PM55 °FScattered clouds.16 mph63%29.53 "HgN/A
2:00 PM54 °FScattered clouds.15 mph67%29.56 "HgN/A
1:30 PM52 °FScattered clouds.16 mph72%29.56 "HgN/A
1:00 PM52 °FScattered clouds.17 mph77%29.56 "HgN/A
12:30 PM50 °FScattered clouds.14 mph76%29.56 "HgN/A
12:00 PM48 °FScattered clouds.14 mph82%29.59 "HgN/A
11:30 AM48 °FScattered clouds.15 mph82%29.59 "HgN/A
11:00 AM48 °FScattered clouds.15 mph87%29.62 "HgN/A
10:00 AM45 °FScattered clouds.13 mph93%29.62 "HgN/A
9:00 AM43 °FScattered clouds.14 mph100%29.62 "HgN/A
8:30 AM43 °FSunny.15 mph93%29.62 "Hg10 mi
8:00 AM43 °FQuite cool.13 mph93%29.62 "HgN/A
7:30 AM41 °FQuite cool.12 mph93%29.62 "HgN/A
7:00 AM39 °FChilly.12 mph100%29.62 "Hg5 mi
6:00 AM39 °FChilly.12 mph100%29.62 "Hg4 mi
5:00 AM39 °FChilly.10 mph100%29.65 "Hg4 mi
4:00 AM41 °FQuite cool.12 mph93%29.65 "Hg3 mi
3:30 AM41 °FQuite cool.12 mph93%29.68 "Hg3 mi
2:00 AM41 °FQuite cool.8 mph100%29.71 "Hg2 mi
1:30 AM41 °FQuite cool.10 mph100%29.71 "Hg0 mi
1:00 AM41 °FQuite cool.9 mph93%29.71 "Hg0 mi
12:00 AM39 °FChilly.7 mph100%29.71 "Hg0 mi
11:30 PM
Sun, Mar 29
39 °FChilly.5 mph100%29.71 "Hg0 mi
11:00 PM39 °FChilly.5 mph93%29.74 "Hg2 mi
10:00 PM39 °FChilly.5 mph93%29.74 "HgN/A
9:30 PM39 °FChilly.3 mph93%29.74 "HgN/A
9:00 PM39 °FChilly.2 mph93%29.74 "HgN/A
8:30 PM39 °FChilly.3 mph93%29.71 "HgN/A
8:00 PM39 °FChilly.3 mph87%29.71 "HgN/A
7:30 PM39 °FChilly.5 mph87%29.71 "HgN/A
7:00 PM39 °FChilly.6 mph87%29.71 "HgN/A
Weather by CustomWeather, © 2015

See weather overviewHow to use our weather pages